[Iaude] MPEC M13: 2018 LO5 [a=1.33,e=0.16,i=48.2,H=20.8]

mpec at mpcdb1.cfa.harvard.edu mpec at mpcdb1.cfa.harvard.edu
Sun Jun 17 13:17:30 EDT 2018


M.P.E.C. 2018-M13                                Issued 2018 June 17, 17:12 UT
 
     The Minor Planet Electronic Circulars contain information on unusual
         minor planets and routine data on comets.  They are published
    on behalf of Division F of the International Astronomical Union by the
          Minor Planet Center, Smithsonian Astrophysical Observatory,
                          Cambridge, MA 02138, U.S.A.

             Prepared using the Tamkin Foundation Computer Network

                              MPC at CFA.HARVARD.EDU
            URL https://www.minorplanetcenter.net/    ISSN 1523-6714


                                   2018 LO5
 
Observations:
     K18L05O* C2018 06 13.36039 16 27 02.294+01 15 26.47         19.9 wUEM013F51
     K18L05O  C2018 06 13.38455 16 26 52.547+01 12 41.41         20.0 wUEM013F51
     K18L05O  C2018 06 13.39667 16 26 47.647+01 11 18.42         20.0 wUEM013F51
     K18L05O  C2018 06 14.36099 16 20 25.33 -00 40 13.8          19.1 GUEM013I52
     K18L05O  C2018 06 14.36134 16 20 25.21 -00 40 16.6          19.2 GUEM013I52
     K18L05O  C2018 06 14.36170 16 20 25.07 -00 40 18.7          19.0 GUEM013I52
     K18L05O  C2018 06 14.36205 16 20 24.95 -00 40 21.1          19.0 GUEM013I52
     K18L05O  C2018 06 14.39442 16 20 12.934-00 44 03.35         20.1 wUEM013F52
     K18L05O  C2018 06 14.40435 16 20 08.860-00 45 13.18         20.1 wUEM013F52
     K18L05O  C2018 06 14.41427 16 20 04.794-00 46 22.93         20.0 wUEM013F52
     K18L05O  C2018 06 14.42426 16 20 00.692-00 47 33.21         19.8 wUEM013F52
     K18L05O KC2018 06 14.46259 16 19 46.64 -00 51 36.2          18.5 RqEM013E08
     K18L05O KC2018 06 14.47058 16 19 43.35 -00 52 32.8          18.3 RqEM013E08
     K18L05O KC2018 06 14.47858 16 19 40.04 -00 53 28.5          19.3 RqEM013E08
     K18L05O KC2018 06 14.88665316 16 56.23 -01 42 10.6          19.3 GUEM013K41
     K18L05O KC2018 06 14.88781 16 16 56.02 -01 42 19.9          19.1 GUEM013587
     K18L05O KC2018 06 14.88797216 16 56.04 -01 42 18.5          20.0 GUEM013K41
     K18L05O KC2018 06 14.88941 16 16 55.41 -01 42 31.1                UEM013587
     K18L05O KC2018 06 14.89207 16 16 54.31 -01 42 50.1                UEM013587
     K18L05O KC2018 06 14.93096316 16 38.48 -01 47 28.0          18.6 GVEM013J69
     K18L05O KC2018 06 14.94349 16 16 33.15 -01 48 56.2                VEM013204
     K18L05O KC2018 06 14.95257 16 16 29.42 -01 50 00.6                VEM013204
     K18L05O KC2018 06 14.95297 16 16 29.53 -01 50 05.2          19.7 GUEM013J77
     K18L05O KC2018 06 14.95703316 16 27.84 -01 50 35.1          18.2 GVEM013J69
     K18L05O KC2018 06 14.95888416 16 27.09 -01 50 47.6          18.0 GVEM013J69
     K18L05O KC2018 06 14.96174 16 16 25.96 -01 51 07.6          19.2 GUEM013J77
     K18L05O KC2018 06 14.96203 16 16 25.56 -01 51 07.9          20.0 GVEM013204
     K18L05O KC2018 06 14.97835 16 16 19.21 -01 53 05.7          19.6 GUEM013J77
     K18L05O KC2018 06 14.98755 16 16 15.41 -01 54 11.1          19.5 GUEM013J77
     K18L05O KC2018 06 15.02099 16 16 01.69 -01 58 09.3                VEM013J95
     K18L05O KC2018 06 15.02506 16 15 59.98 -01 58 38.0                VEM013J95
     K18L05O KC2018 06 15.02920 16 15 58.29 -01 59 07.5          19.5 GVEM013J95
     K18L05O KC2018 06 15.03697 16 15 54.85 -02 00 00.8          19.7 GVEM013K38
     K18L05O KC2018 06 15.05888 16 15 45.94 -02 02 38.3          19.3 GVEM013K38
     K18L05O KC2018 06 15.27042 16 14 21.25 -02 27 45.6          19.6 GUEM013H36
     K18L05O KC2018 06 15.27494 16 14 19.29 -02 28 19.2          19.4 GUEM013H36
     K18L05O KC2018 06 15.28399 16 14 15.60 -02 29 22.9          19.5 GUEM013H36
     K18L05O KC2018 06 15.29183 16 14 12.34 -02 30 18.8          19.7 GUEM013H36
     K18L05O KC2018 06 15.87166 16 10 18.84 -03 39 53.1          19.4  UEM013104
     K18L05O KC2018 06 15.88316 16 10 14.09 -03 41 16.3          19.5  UEM013104
     K18L05O KC2018 06 15.89465 16 10 09.28 -03 42 39.3          19.4  UEM013104
     K18L05O KC2018 06 16.22298 16 07 55.43 -04 22 17.6          19.7 GUEM013H36
     K18L05O KC2018 06 16.22754 16 07 53.52 -04 22 50.3          19.8 GUEM013H36
     K18L05O KC2018 06 16.23211 16 07 51.64 -04 23 24.1          19.6 GUEM013H36
     K18L05O KC2018 06 16.23667 16 07 49.72 -04 23 56.9          19.6 GUEM013H36
     K18L05O  C2018 06 16.60199 16 05 20.60 -05 08 14.9          21.3 RrEM013P93
     K18L05O  C2018 06 16.61308 16 05 15.95 -05 09 35.2          21.1 RrEM013P93
     K18L05O  C2018 06 16.61574 16 05 14.84 -05 09 55.0          21.1 RrEM013P93
 
Observer details:
104 San Marcello Pistoiese.  Observers P. Bacci, M. Maestripieri.  Measurers
    P. Bacci, L. Tesi, G. Fagioli.  0.60-m reflector + CCD.
204 Schiaparelli Observatory.  Observer L. Buzzi.  0.60-m f/4.64 reflector
    + CCD.
587 Sormano.  Observers P. Sicoli, A. Testa.  Measurer P. Sicoli.  0.5-m f/6.8
    reflector + CCD.
E08 Wobblesock Observatory, Coonabarabran.  Observer J. Nott.  0.35-m
    reflector + CCD.
F51 Pan-STARRS 1, Haleakala.  Observers J. Bulger, T. Lowe, A. Schultz,
    M. Willman.  Measurers K. Chambers, S. Chastel, L. Denneau, H. Flewelling,
    M. Huber, E. Magnier, Y. Ramanjooloo, R. Wainscoat, C. Waters, R. Weryk.
    1.8-m Ritchey-Chretien + CCD.
F52 Pan-STARRS 2, Haleakala.  Observers J. Bulger, T. Dukes, T. Lowe,
    A. Schultz, M. Willman.  Measurers K. Chambers, S. Chastel, L. Denneau,
    H. Flewelling, M. Huber, E. Magnier, Y. Ramanjooloo, R. Wainscoat,
    C. Waters, R. Weryk.  1.8-m Ritchey-Chretien + CCD.
H36 Sandlot Observatory, Scranton.  Observer G. Hug.  0.56-m reflector + CCD.
I52 Steward Observatory, Mt. Lemmon Station.  Observer D. C. Fuls.  Measurers
    B. M. Africano, E. J. Christensen, D. C. Fuls, A. R. Gibbs, A. D. Grauer,
    H. Groeller, J. A. Johnson, R. A. Kowalski, S. M. Larson, G. J. Leonard,
    R. L. Seaman, F. C. Shelly.  1.0-m reflector + CCD.
J69 North Observatory, Clanfield.  Observer D. Briggs.  0.41-m f/4.5 Newtonian
    reflector + CCD.
J77 Golden Hill Observatory, Stourton Caundle.  Observer R. Miles.  0.35-m f/8
    Schmidt-Cassegrain + CCD.
J95 Great Shefford.  Observer P. Birtwhistle.  0.40-m f/6.0 Schmidt-Cassegrain
    + CCD.
K38 M57 Observatory, Saltrio.  Observer G. Baj.  0.30-m f/5.5 Ritchey-Chretien
    + CCD.
K41 Vegaquattro Astronomical Obs., Novi Ligure.  Observer V. Luna.  0.3-m
    Schmidt-Cassegrain + CCD.
P93 Space Tracking and Communications Center, JAXA.  Observers K. Nishiyama,
    S. Okumura.  1.0-m f/3.0 reflector + CCD.
 
Orbital elements:
2018 LO5                                                 Earth MOID = 0.2375 AU
Epoch 2018 Mar. 23.0 TT = JDT 2458200.5                 MPC
M 238.43762              (2000.0)            P               Q
n   0.64320127     Peri.  259.98957     +0.62979282     +0.23544433
a   1.3291422      Node    82.97025     +0.06021274     +0.93529047
e   0.1611381      Incl.   48.23022     -0.77442587     +0.26419255
P   1.53           H   20.8           G   0.15           U   8
Residuals in seconds of arc
180613 F51  0.1-  0.1-    180614 K41  1.4+  2.4+    180615 K38  0.0   0.2+
180613 F51  0.1+  0.0     180614 587  1.0+  0.4+    180615 K38  0.6+  1.3-
180613 F51  0.0   0.0     180614 587  0.9+  0.3+    180615 H36  0.7+  0.1+
180614 I52  0.3-  0.1+    180614 J69  0.7-  0.5+    180615 H36  0.7-  1.2-
180614 I52  0.0   0.3-    180614 204  0.2-  0.3-    180615 H36  0.1-  0.1-
180614 I52  0.1+  0.2+    180614 204  0.3-  0.1-    180615 H36  0.5-  0.1+
180614 I52  0.5+  0.2+    180614 J77  0.2-  0.2-    180615 104  0.2-  0.0
180614 F52  0.0   0.0     180614 J69  0.1-  1.2-    180615 104  0.2+  0.0
180614 F52  0.0   0.1-    180614 J69  0.0   0.5-    180615 104  0.4-  0.1+
180614 F52  0.1+  0.1-    180614 J77  0.1+  0.2-    180616 H36  0.1-  0.4-
180614 F52  0.1+  0.2-    180614 204  0.1+  0.1-    180616 H36  0.2-  0.0
180614 E08  0.2+  0.3+    180614 J77  1.0+  0.1-    180616 H36  0.2+  0.6-
180614 E08  0.1-  0.1-    180614 J77  0.5+  0.0     180616 H36  0.1-  0.3-
180614 E08  0.7-  0.5+    180615 J95  0.4+  0.0     180616 P93  0.3+  0.1-
180614 K41 (3.9-  0.9+)   180615 J95  0.3-  0.3+    180616 P93  0.3+  0.5+
180614 587  0.3+  0.3+    180615 J95  0.3-  0.2+    180616 P93  0.3+  0.1+

Ephemeris:
2018 LO5                 a,e,i = 1.33, 0.16, 48                  q = 1.1150
Date    TT    R. A. (2000) Decl.     Delta      r     Elong.  Phase     V
2018 05 18    18 20 44.4 +27 21 56   0.5268  1.3469   118.8    41.1    21.7
...
2018 06 02    17 31 12.5 +18 03 50   0.3687  1.3108   137.8    31.3    20.6
...
2018 06 10    16 48 15.9 +07 16 36   0.3100  1.2914   149.2    23.7    19.9
...
2018 06 16    16 09 26.7 -03 54 53   0.2886  1.2768   151.4    22.4    19.7
2018 06 17    16 02 38.4 -05 56 19   0.2874  1.2744   150.7    23.0    19.7
2018 06 18    15 55 47.2 -07 58 42   0.2869  1.2719   149.7    23.8    19.7
...
2018 06 24    15 14 44.2 -19 52 38   0.2979  1.2575   139.4    31.8    20.0
...
2018 07 02    14 24 55.6 -32 32 58   0.3444  1.2385   123.0    43.5    20.6
...
2018 07 17    13 19 22.2 -45 51 17   0.4815  1.2047   101.0    55.9    21.6

A. U. Tomatic                (C) Copyright 2018 MPC           M.P.E.C. 2018-M13



More information about the Iaude mailing list